FW1394 Weather Reports


time (UTC)temp
F
wind
direction
speed
knots
gust
knots
rain 1hr
in
rain 24hr
in
rain mn
in
humidity
%
barometer
mb
20260504060123 58 0 0.0 0.0 0.00 0.00 0.00 65 1009.1
20260504050544 60 0 0.0 0.0 0.00 0.00 0.00 62 1009.2
20260504050111 60 0 0.0 0.0 0.00 0.00 0.00 62 1009.3
20260504045544 60 0 0.0 0.0 0.00 0.00 0.00 62 1009.3
20260504045044 60 0 0.0 0.0 0.00 0.00 0.00 62 1009.4
20260504044551 60 0 0.0 0.0 0.00 0.00 0.00 63 1009.4
20260504044042 60 0 0.0 0.0 0.00 0.00 0.00 61 1009.4
20260504043541 60 0 0.0 0.0 0.00 0.00 0.00 61 1009.4
20260504043101 60 0 0.0 0.0 0.00 0.00 0.00 60 1009.3
20260504042542 61 0 0.0 0.0 0.00 0.00 0.00 61 1009.3
20260504042041 61 0 0.0 0.0 0.00 0.00 0.00 61 1009.4
20260504041550 61 0 0.0 0.0 0.00 0.00 0.00 61 1009.3
20260504041041 61 0 0.0 0.0 0.00 0.00 0.00 60 1009.4
20260504040541 61 0 0.0 0.0 0.00 0.00 0.00 60 1009.4
20260504040058 62 0 0.0 0.0 0.00 0.00 0.00 60 1009.3
20260504035541 62 0 0.0 0.0 0.00 0.00 0.00 61 1009.3
20260504035041 62 0 0.0 0.0 0.00 0.00 0.00 60 1009.2
20260504034545 62 0 0.0 0.0 0.00 0.00 0.00 60 1009.3
20260504034041 63 0 0.0 0.0 0.00 0.00 0.00 58 1009.1
20260504033538 63 0 0.0 0.0 0.00 0.00 0.00 58 1009.0
20260504033056 64 0 0.0 0.0 0.00 0.00 0.00 58 1008.9
20260504032538 64 0 0.0 0.0 0.00 0.00 0.00 60 1008.9
20260504032042 64 0 0.0 0.0 0.00 0.00 0.00 59 1008.9
20260504031557 65 0 0.0 0.0 0.00 0.00 0.00 58 1008.9
20260504031038 65 0 0.0 0.0 0.00 0.00 0.00 58 1008.9
20260504030540 65 0 0.0 0.0 0.00 0.00 0.00 57 1008.9
20260504030051 65 0 0.0 0.0 0.00 0.00 0.00 58 1008.9
20260504025540 66 0 0.0 0.0 0.00 0.00 0.00 54 1009.0
20260504025039 66 0 0.0 0.0 0.00 0.00 0.00 54 1009.0
20260504024557 66 0 0.0 0.0 0.00 0.00 0.00 54 1009.1
20260504024040 66 0 0.0 0.0 0.00 0.00 0.00 53 1009.2
20260504023539 66 0 0.0 0.0 0.00 0.00 0.00 53 1009.1
20260504023048 67 0 0.0 0.0 0.00 0.00 0.00 52 1009.2
20260504022539 67 0 0.0 0.0 0.00 0.00 0.00 51 1009.3
20260504022038 67 0 0.0 0.0 0.00 0.00 0.00 51 1009.3
20260504021551 67 0 0.0 0.0 0.00 0.00 0.00 51 1009.3
20260504021041 67 0 0.0 0.0 0.00 0.00 0.00 50 1009.3
20260504020538 67 0 0.0 0.0 0.00 0.00 0.00 50 1009.3
20260504020052 67 0 0.0 0.0 0.00 0.00 0.00 48 1009.3
20260504015538 67 0 0.0 0.0 0.00 0.00 0.00 48 1009.3
20260504015038 68 0 0.0 0.0 0.00 0.00 0.00 47 1009.4
20260504014557 68 0 0.0 0.0 0.00 0.00 0.00 49 1009.5
20260504014041 68 0 0.0 0.0 0.00 0.00 0.00 49 1009.5
20260504013538 68 0 0.0 0.0 0.00 0.00 0.00 46 1009.7
20260504013055 69 0 0.0 0.0 0.00 0.00 0.00 47 1009.8
20260504012538 69 0 0.0 0.0 0.00 0.00 0.00 46 1009.8
20260504012038 69 0 0.0 0.0 0.00 0.00 0.00 46 1009.7
20260504011554 69 0 0.0 0.0 0.00 0.00 0.00 45 1009.8
20260504011037 70 0 0.0 0.0 0.00 0.00 0.00 44 1009.8
20260504010537 70 0 0.0 0.0 0.00 0.00 0.00 43 1009.9
20260504010107 71 0 0.0 0.0 0.00 0.00 0.00 42 1010.0
20260504005542 71 0 0.0 0.0 0.00 0.00 0.00 41 1010.0
20260504005042 72 0 0.0 0.0 0.00 0.00 0.00 41 1010.1
20260504004552 72 0 0.0 0.0 0.00 0.00 0.00 42 1010.1
20260504004044 73 0 0.0 0.0 0.00 0.00 0.00 42 1010.2
20260504003542 73 0 0.0 0.0 0.00 0.00 0.00 40 1010.2
20260504003050 74 0 0.0 0.0 0.00 0.00 0.00 40 1010.3
20260504002542 74 0 0.0 0.0 0.00 0.00 0.00 39 1010.2
20260504002042 74 0 0.0 0.0 0.00 0.00 0.00 37 1010.2
20260504001559 75 0 0.0 0.0 0.00 0.00 0.00 38 1010.3
20260504001043 75 0 0.0 0.0 0.00 0.00 0.00 38 1010.5
20260504000540 75 0 0.0 0.0 0.00 0.00 0.00 35 1010.4
20260504000056 76 0 0.0 0.0 0.00 0.00 0.00 36 1010.4
20260503235546 76 0 0.0 0.0 0.00 0.00 0.00 35 1010.6
20260503235041 77 0 0.0 0.0 0.00 0.00 0.00 35 1010.8
20260503234553 78 0 0.0 0.0 0.00 0.00 0.00 35 1010.9
20260503234042 78 0 0.0 0.0 0.00 0.00 0.00 34 1010.8
20260503233541 79 0 0.0 0.0 0.00 0.00 0.00 33 1010.7
20260503233103 80 0 0.0 0.0 0.00 0.00 0.00 31 1010.8
20260503232540 81 0 0.0 0.0 0.00 0.00 0.00 30 1011.0
20260503232044 81 0 0.0 0.0 0.00 0.00 0.00 30 1011.1
20260503231553 82 0 0.0 0.0 0.00 0.00 0.00 31 1011.1
20260503231042 83 0 0.0 0.0 0.00 0.00 0.00 30 1011.2
20260503230543 84 0 0.0 0.0 0.00 0.00 0.00 30 1011.2
20260503230053 85 0 0.0 0.0 0.00 0.00 0.00 29 1011.2
20260503225546 86 0 0.0 0.0 0.00 0.00 0.00 28 1011.2
20260503225041 87 0 0.0 0.0 0.00 0.00 0.00 27 1011.4
20260503224554 87 0 0.0 0.0 0.00 0.00 0.00 27 1011.5
20260503224042 88 0 0.0 0.0 0.00 0.00 0.00 27 1011.5
20260503223540 88 0 0.0 0.0 0.00 0.00 0.00 27 1011.7
20260503223051 88 0 0.0 0.0 0.00 0.00 0.00 27 1011.8
20260503222541 89 0 0.0 0.0 0.00 0.00 0.00 25 1011.8
20260503222044 89 0 0.0 0.0 0.00 0.00 0.00 26 1011.8
20260503221558 89 0 0.0 0.0 0.00 0.00 0.00 28 1011.9
20260503221042 88 0 0.0 0.0 0.00 0.00 0.00 27 1011.9
20260503220541 89 0 0.0 0.0 0.00 0.00 0.00 27 1011.9
20260503215543 89 0 0.0 0.0 0.00 0.00 0.00 28 1012.1
20260503215040 89 0 0.0 0.0 0.00 0.00 0.00 28 1012.1
20260503214554 89 0 0.0 0.0 0.00 0.00 0.00 27 1012.1
20260503214040 89 0 0.0 0.0 0.00 0.00 0.00 28 1012.2
20260503213545 89 0 0.0 0.0 0.00 0.00 0.00 30 1012.3
20260503213051 88 0 0.0 0.0 0.00 0.00 0.00 28 1012.3
20260503212543 88 0 0.0 0.0 0.00 0.00 0.00 32 1012.3
20260503212042 88 0 0.0 0.0 0.00 0.00 0.00 29 1012.3
20260503211550 88 0 0.0 0.0 0.00 0.00 0.00 29 1012.4
20260503211040 88 0 0.0 0.0 0.00 0.00 0.00 29 1012.5
20260503210540 88 0 0.0 0.0 0.00 0.00 0.00 29 1012.5
20260503210057 87 0 0.0 0.0 0.00 0.00 0.00 30 1012.7
20260503205541 87 0 0.0 0.0 0.00 0.00 0.00 29 1012.7
20260503205043 87 0 0.0 0.0 0.00 0.00 0.00 30 1012.8
20260503204606 87 0 0.0 0.0 0.00 0.00 0.00 31 1012.9
20260503204040 88 0 0.0 0.0 0.00 0.00 0.00 29 1013.0
20260503203541 88 0 0.0 0.0 0.00 0.00 0.00 29 1013.1
20260503203105 88 0 0.0 0.0 0.00 0.00 0.00 30 1013.1
20260503202541 88 0 0.0 0.0 0.00 0.00 0.00 31 1013.2
20260503202041 88 0 0.0 0.0 0.00 0.00 0.00 31 1013.2
20260503201549 87 0 0.0 0.0 0.00 0.00 0.00 32 1013.2
20260503201042 88 0 0.0 0.0 0.00 0.00 0.00 29 1013.3
20260503200540 88 0 0.0 0.0 0.00 0.00 0.00 30 1013.3
20260503200055 88 0 0.0 0.0 0.00 0.00 0.00 30 1013.4
20260503195540 89 0 0.0 0.0 0.00 0.00 0.00 31 1013.4
20260503195042 89 0 0.0 0.0 0.00 0.00 0.00 30 1013.4
20260503194607 88 0 0.0 0.0 0.00 0.00 0.00 31 1013.4
20260503194041 88 0 0.0 0.0 0.00 0.00 0.00 31 1013.3
20260503193542 88 0 0.0 0.0 0.00 0.00 0.00 31 1013.4
20260503193050 88 0 0.0 0.0 0.00 0.00 0.00 32 1013.5
20260503192541 88 0 0.0 0.0 0.00 0.00 0.00 33 1013.4
20260503192041 87 0 0.0 0.0 0.00 0.00 0.00 32 1013.5
20260503191600 87 0 0.0 0.0 0.00 0.00 0.00 33 1013.5
20260503191042 86 0 0.0 0.0 0.00 0.00 0.00 34 1013.5
20260503190541 86 0 0.0 0.0 0.00 0.00 0.00 34 1013.6
20260503190057 85 0 0.0 0.0 0.00 0.00 0.00 35 1013.6
20260503185541 85 0 0.0 0.0 0.00 0.00 0.00 35 1013.7
20260503185041 84 0 0.0 0.0 0.00 0.00 0.00 35 1013.8
20260503184555 83 0 0.0 0.0 0.00 0.00 0.00 36 1013.8
20260503184041 83 0 0.0 0.0 0.00 0.00 0.00 35 1013.9
20260503183542 83 0 0.0 0.0 0.00 0.00 0.00 36 1014.0
20260503183105 82 0 0.0 0.0 0.00 0.00 0.00 38 1014.1
20260503182540 81 0 0.0 0.0 0.00 0.00 0.00 36 1014.1
20260503182040 81 0 0.0 0.0 0.00 0.00 0.00 37 1014.2
20260503181554 81 0 0.0 0.0 0.00 0.00 0.00 37 1014.2
20260503181040 81 0 0.0 0.0 0.00 0.00 0.00 37 1014.2
20260503180540 81 0 0.0 0.0 0.00 0.00 0.00 38 1014.1
20260503180105 80 0 0.0 0.0 0.00 0.00 0.00 38 1014.2
20260503175540 79 0 0.0 0.0 0.00 0.00 0.00 39 1014.2
20260503175040 79 0 0.0 0.0 0.00 0.00 0.00 39 1014.3
20260503174549 78 0 0.0 0.0 0.00 0.00 0.00 41 1014.3
20260503174041 77 0 0.0 0.0 0.00 0.00 0.00 42 1014.3
20260503173538 76 0 0.0 0.0 0.00 0.00 0.00 43 1014.3
20260503173134 75 0 0.0 0.0 0.00 0.00 0.00 44 1014.3
20260503172539 74 0 0.0 0.0 0.00 0.00 0.00 46 1014.3
20260503172039 73 0 0.0 0.0 0.00 0.00 0.00 48 1014.4
20260503171554 72 0 0.0 0.0 0.00 0.00 0.00 49 1014.4
20260503171045 71 0 0.0 0.0 0.00 0.00 0.00 52 1014.4
20260503170541 69 0 0.0 0.0 0.00 0.00 0.00 54 1014.5
20260503150541 64 0 0.0 0.0 0.00 0.00 0.00 65 1014.7
20260503131042 51 0 0.0 0.0 0.00 0.00 0.00 83 1014.2
20260503130542 51 0 0.0 0.0 0.00 0.00 0.00 83 1014.2
20260503130104 51 0 0.0 0.0 0.00 0.00 0.00 83 1014.3
20260503110540 54 0 0.0 0.0 0.00 0.00 0.00 79 1014.5
20260503081600 54 0 0.0 0.0 0.00 0.00 0.00 74 1014.4
20260503081040 54 0 0.0 0.0 0.00 0.00 0.00 74 1014.5
20260503080541 54 0 0.0 0.0 0.00 0.00 0.00 73 1014.4
20260503072541 54 0 0.0 0.0 0.00 0.00 0.00 72 1014.2
20260503072041 54 0 0.0 0.0 0.00 0.00 0.00 71 1014.3
20260503071554 55 0 0.0 0.0 0.00 0.00 0.00 71 1014.3
20260503071040 55 0 0.0 0.0 0.00 0.00 0.00 71 1014.2
20260503070541 55 0 0.0 0.0 0.00 0.00 0.00 71 1014.1